Date String (YYYY-MM-DD hh:mm:ss) UTC,Instrument flags,absolute air pressure of the measurement (hPa),sample flow rate (lpm),inlet stack bypass flow (lpm),air temperature of the measurement (°C),ambient temperature measured by the external sensor (°C),aerosol sample conditioner tube jacket temperature (°C),OPC LED temperature (°C),internal box temperature (°C),relative humidity of the measurement (%),span deviation,mass concentration of particles derived from Lorenz-Mie calculation of OPC scattering (μg/m³),mass concentration of particles derived from Lorenz-Mie calculation of OPC scattering (μg/m³),mass concentration of particles derived from Lorenz-Mie calculation of OPC scattering (μg/m³)
DateTimeUTC,F1_M11,P_M11,Q1_M11,Q2_M11,T1_M11,T2_M11,T3_M11,T4_M11,T5_M11,U1_M11,ZSPAN_M11,X2_M11,X0_M11,X1_M11
2023-09-08 20:00:00,SystemResetWarning,0835.0,5.00,000.00,027.7,026.2,000.0,035.9,029.4,21.5,0001.7,0005.91,0018.57,0004.57
2023-09-08 20:01:00,SystemResetWarning,0835.1,4.99,000.00,027.8,026.5,000.0,036.0,029.5,21.2,0001.9,0005.92,0018.78,0004.59
2023-09-08 20:02:00,SystemResetWarning,0835.1,5.00,000.00,027.8,026.7,000.0,036.0,029.6,20.6,0002.3,0005.95,0019.12,0004.60
2023-09-08 20:03:00,SystemResetWarning,0834.6,4.99,000.00,027.9,025.7,000.0,035.9,029.4,19.1,0002.1,0005.96,0019.00,0004.60
2023-09-08 20:04:00,SystemResetWarning,0834.5,5.01,000.00,027.8,024.4,000.0,035.9,029.1,19.1,0001.5,0005.95,0019.25,0004.60
2023-09-08 20:05:00,SystemResetWarning,0834.5,5.02,000.00,027.7,024.4,000.0,035.8,029.1,19.6,0001.5,0006.02,0020.31,0004.60
2023-09-08 20:06:00,SystemResetWarning,0834.5,5.00,000.00,027.7,024.7,000.0,035.8,029.1,18.7,0001.6,0006.05,0019.78,0004.57
2023-09-08 20:07:00,SystemResetWarning,0834.5,5.00,000.00,027.6,025.1,000.0,035.9,029.1,18.2,0002.0,0006.04,0019.85,0004.56
2023-09-08 20:08:00,SystemResetWarning,0834.5,4.99,000.00,027.7,025.6,000.0,035.9,029.2,18.2,0002.3,0005.96,0018.58,0004.54
2023-09-08 20:09:00,SystemResetWarning,0834.5,4.99,000.00,027.7,026.0,000.0,035.9,029.3,18.6,0002.1,0005.86,0017.98,0004.52
2023-09-08 20:10:00,SystemResetWarning,0834.5,5.00,000.00,027.7,026.4,000.0,035.9,029.4,18.5,0002.5,0005.81,0017.15,0004.51
2023-09-08 20:11:00,SystemResetWarning,0834.4,5.00,000.00,027.8,026.6,000.0,036.0,029.5,18.2,0002.5,0005.80,0016.21,0004.51
2023-09-08 20:12:00,SystemResetWarning,0834.4,4.99,000.00,027.8,025.7,000.0,035.9,029.4,18.6,0002.2,0005.79,0016.52,0004.48
2023-09-08 20:13:00,SystemResetWarning,0834.3,5.00,000.00,027.7,024.4,000.0,035.8,029.1,19.5,0002.1,0005.77,0017.06,0004.47
2023-09-08 20:14:00,SystemResetWarning,0834.3,5.02,000.00,027.7,024.3,000.0,035.8,029.1,20.1,0002.1,0005.71,0017.38,0004.46
2023-09-08 20:15:00,SystemResetWarning,0834.5,4.98,000.00,027.6,024.7,000.0,035.8,029.1,19.6,0002.5,0005.64,0016.48,0004.45
2023-09-08 20:16:00,SystemResetWarning,0834.2,5.00,000.00,027.6,025.1,000.0,035.8,029.1,20.1,0002.4,0005.61,0016.23,0004.46
2023-09-08 20:17:00,SystemResetWarning,0834.5,5.02,000.00,027.6,025.5,000.0,035.8,029.2,19.3,0002.2,0005.59,0015.94,0004.49
2023-09-08 20:18:00,SystemResetWarning,0834.2,4.99,000.00,027.7,025.9,000.0,035.9,029.3,17.2,0002.1,0005.53,0015.28,0004.50
2023-09-08 20:19:00,SystemResetWarning,0834.5,5.00,000.00,027.7,026.3,000.0,035.9,029.4,18.0,0002.0,0005.60,0015.45,0004.51
2023-09-08 20:20:00,SystemResetWarning,0834.3,5.00,000.00,027.8,026.6,000.0,035.9,029.5,18.5,0001.8,0005.65,0015.47,0004.53
2023-09-08 20:21:00,SystemResetWarning,0834.2,5.01,000.00,027.8,026.6,000.0,035.9,029.5,18.4,0002.2,0005.69,0015.24,0004.53
2023-09-08 20:22:00,SystemResetWarning,0834.2,4.98,000.00,027.8,025.2,000.0,035.9,029.3,18.5,0002.1,0005.72,0015.23,0004.55
2023-09-08 20:23:00,SystemResetWarning,0834.2,5.01,000.00,027.7,024.3,000.0,035.8,029.1,19.1,0002.0,0005.73,0015.48,0004.58
2023-09-08 20:24:00,SystemResetWarning,0834.2,5.02,000.00,027.7,024.6,000.0,035.8,029.1,18.8,0001.9,0005.80,0014.95,0004.61
2023-09-08 20:25:00,SystemResetWarning,0834.2,5.00,000.00,027.6,024.9,000.0,035.8,029.1,19.1,0001.8,0005.84,0014.32,0004.62
2023-09-08 20:26:00,SystemResetWarning,0834.2,4.99,000.00,027.6,025.4,000.0,035.8,029.2,18.9,0001.8,0005.87,0014.28,0004.64
2023-09-08 20:27:00,SystemResetWarning,0834.2,5.00,000.00,027.7,025.8,000.0,035.9,029.3,18.3,0001.8,0005.85,0013.43,0004.65
2023-09-08 20:28:00,SystemResetWarning,0834.2,5.01,000.00,027.7,026.2,000.0,035.9,029.4,18.2,0001.9,0005.85,0013.63,0004.65
2023-09-08 20:29:00,SystemResetWarning,0834.2,5.00,000.00,027.8,026.5,000.0,035.9,029.5,18.0,0001.9,0005.90,0014.35,0004.67
2023-09-08 20:30:00,SystemResetWarning,0834.1,5.00,000.00,027.8,026.8,000.0,036.0,029.6,17.2,0002.1,0005.86,0014.37,0004.68
2023-09-08 20:31:00,SystemResetWarning,0834.2,4.98,000.00,027.9,026.2,000.0,035.9,029.5,16.9,0002.1,0005.82,0014.79,0004.67
2023-09-08 20:32:00,SystemResetWarning,0834.1,5.01,000.00,027.8,024.7,000.0,035.9,029.2,17.4,0001.8,0005.80,0014.87,0004.67
2023-09-08 20:33:00,SystemResetWarning,0834.0,5.01,000.00,027.7,024.5,000.0,035.8,029.2,17.3,0001.9,0005.83,0015.14,0004.68
2023-09-08 20:34:00,SystemResetWarning,0834.0,4.99,000.00,027.7,024.8,000.0,035.8,029.2,17.5,0002.0,0005.85,0015.40,0004.68
2023-09-08 20:35:00,SystemResetWarning,0834.0,5.00,000.00,027.7,025.2,000.0,035.9,029.2,18.2,0002.3,0005.82,0014.93,0004.66
2023-09-08 20:36:00,SystemResetWarning,0834.0,5.00,000.00,027.7,025.6,000.0,035.9,029.3,17.3,0002.3,0005.80,0015.90,0004.67
2023-09-08 20:37:00,SystemResetWarning,0834.0,5.01,000.00,027.7,026.0,000.0,035.9,029.4,16.9,0002.3,0005.85,0016.06,0004.68
2023-09-08 20:38:00,SystemResetWarning,0834.0,5.00,000.00,027.8,026.4,000.0,035.9,029.5,16.3,0002.2,0005.92,0016.05,0004.69
2023-09-08 20:39:00,SystemResetWarning,0833.9,4.99,000.00,027.8,026.5,000.0,036.0,029.5,16.5,0002.2,0005.92,0016.19,0004.70
2023-09-08 20:40:00,SystemResetWarning,0833.9,4.98,000.00,027.8,025.2,000.0,035.9,029.3,16.8,0002.1,0005.95,0016.24,0004.70
2023-09-08 20:41:00,SystemResetWarning,0833.9,5.01,000.00,027.8,024.2,000.0,035.8,029.1,17.6,0001.8,0005.96,0015.51,0004.71
2023-09-08 20:42:00,SystemResetWarning,0833.9,5.01,000.00,027.7,024.5,000.0,035.8,029.2,18.5,0001.7,0006.03,0015.39,0004.73
2023-09-08 20:43:00,SystemResetWarning,0834.0,4.99,000.00,027.7,024.8,000.0,035.8,029.2,18.6,0001.9,0006.10,0015.32,0004.77
2023-09-08 20:44:00,SystemResetWarning,0834.0,5.00,000.00,027.7,025.3,000.0,035.8,029.2,18.9,0002.0,0006.10,0015.82,0004.78
2023-09-08 20:45:00,SystemResetWarning,0833.9,5.00,000.00,027.7,025.7,000.0,035.9,029.3,19.0,0001.7,0006.13,0016.44,0004.82
2023-09-08 20:46:00,SystemResetWarning,0833.9,5.00,000.00,027.7,026.1,000.0,035.9,029.4,19.4,0001.4,0006.12,0017.45,0004.85
2023-09-08 20:47:00,SystemResetWarning,0833.9,5.00,000.00,027.8,026.4,000.0,035.9,029.5,19.1,0001.4,0006.13,0016.94,0004.89
2023-09-08 20:48:00,SystemResetWarning,0833.9,5.00,000.00,027.8,026.6,000.0,035.9,029.6,17.7,0001.3,0006.12,0017.03,0004.89
2023-09-08 20:49:00,SystemResetWarning,0833.9,4.99,000.00,027.8,025.5,000.0,035.9,029.3,17.4,0001.5,0006.06,0016.85,0004.89
2023-09-08 20:50:00,SystemResetWarning,0833.9,5.01,000.00,027.7,024.4,000.0,035.8,029.1,17.1,0001.2,0006.05,0016.79,0004.88
2023-09-08 20:51:00,SystemResetWarning,0833.9,5.02,000.00,027.7,024.6,000.0,035.8,029.2,16.7,0000.9,0006.00,0016.52,0004.88
2023-09-08 20:52:00,SystemResetWarning,0833.9,4.99,000.00,027.7,025.0,000.0,035.8,029.2,16.6,0000.9,0006.02,0017.24,0004.89
2023-09-08 20:53:00,SystemResetWarning,0833.9,5.00,000.00,027.7,025.4,000.0,035.9,029.2,16.6,0000.9,0006.00,0017.11,0004.90
2023-09-08 20:54:00,SystemResetWarning,0833.8,5.02,000.00,027.7,025.8,000.0,035.9,029.3,16.1,0000.8,0006.00,0017.33,0004.89
2023-09-08 20:55:00,SystemResetWarning,0833.9,5.00,000.00,027.7,026.2,000.0,035.9,029.4,16.0,0000.6,0005.96,0017.82,0004.87
2023-09-08 20:56:00,SystemResetWarning,0833.9,5.00,000.00,027.8,026.5,000.0,035.9,029.5,16.3,0001.0,0005.96,0017.53,0004.87
2023-09-08 20:57:00,SystemResetWarning,0833.8,5.00,000.00,027.8,026.7,000.0,035.9,029.6,16.6,0000.9,0005.98,0016.87,0004.85
2023-09-08 20:58:00,SystemResetWarning,0833.8,4.98,000.00,027.9,025.6,000.0,035.9,029.4,17.3,0000.8,0006.01,0017.09,0004.84
2023-09-08 20:59:00,SystemResetWarning,0833.7,5.01,000.00,027.8,024.4,000.0,035.8,029.2,16.8,0000.8,0006.03,0016.69,0004.84
